Terug naar catalogus

THORAD DELTA 1 DEB

ActiefSSO
NORAD 8173·DEBRIS·🇺🇸 United States

Gelanceerd Nov 15, 1974 vanaf Vandenberg Space Force Base

Loading…

Volgende Passages (komende 24 uur)

TLE

VersSource: Space-Track

Epoch: Sep 13, 2026, 21:21 UTC

1 08173U 74089AP  26256.88979081 -.00000005  00000-0  26488-3 0  9995
2 08173 102.0052 240.1041 0108807 318.9321  69.5265 12.51903451366092

Volg THORAD DELTA 1 DEB in realtime met AllMySat

Download on the App Store